When you browse on this site, cookies collect data to enhance your experience and personalize the content and advertising you see.
Visit our Privacy Policy to learn more. By continuing to use the site, you agree to this use of cookies and data.
  • In Lithuania
  • List of Countries
  • For 7 days
  • Water Temperature
  • Weather Map
  • Weather Widgets
  • user-avatar
    Login

    Hourly Weather Malanje

    Today, 3 June, Wednesday

    Time Temperature Precipitation Wind Pressure Humidity
    00:00 +20°C° 0 mm 1 mps 666 mmHg 54%
    01:00 +20°C° 0 mm 1 mps 665 mmHg 56%
    02:00 +19°C° 0 mm 1 mps 665 mmHg 58%
    03:00 +18°C° 0 mm 1 mps 665 mmHg 60%
    04:00 +16°C° 0 mm 1 mps 665 mmHg 62%
    05:00 +16°C° 0 mm 1 mps 665 mmHg 61%
    06:00 +18°C° 0 mm 1 mps 666 mmHg 60%
    07:00 +18°C° 0 mm 1 mps 666 mmHg 59%
    08:00 +21°C° 0 mm 1 mps 667 mmHg 52%
    09:00 +24°C° 0 mm 2 mps 667 mmHg 45%
    10:00 +27°C° 0 mm 2 mps 668 mmHg 38%
    11:00 +29°C° 0 mm 2 mps 668 mmHg 35%
    12:00 +31°C° 0 mm 2 mps 668 mmHg 32%
    13:00 +33°C° 0 mm 1 mps 667 mmHg 29%
    14:00 +32°C° 0 mm 1 mps 667 mmHg 31%
    15:00 +31°C° 0 mm 1 mps 666 mmHg 33%
    16:00 +28°C° 0 mm 0 mps 665 mmHg 35%
    17:00 +27°C° 0 mm 0 mps 665 mmHg 37%
    18:00 +25°C° 0 mm 0 mps 666 mmHg 40%
    19:00 +23°C° 0 mm 0 mps 666 mmHg 42%
    20:00 +25°C° 0 mm 1 mps 666 mmHg 45%
    21:00 +25°C° 0 mm 1 mps 666 mmHg 47%
    22:00 +24°C° 0 mm 2 mps 666 mmHg 49%
    23:00 +23°C° 0 mm 2 mps 666 mmHg 62%

    Tomorrow, 4 June, Thursday

    Time Temperature Precipitation Wind Pressure Humidity
    00:00 +20°C° 0 mm 2 mps 666 mmHg 74%
    01:00 +19°C° 0 mm 2 mps 665 mmHg 86%
    02:00 +18°C° 0 mm 2 mps 665 mmHg 90%
    03:00 +18°C° 0 mm 2 mps 665 mmHg 93%
    04:00 +17°C° 0 mm 2 mps 665 mmHg 96%
    05:00 +19°C° 0 mm 1 mps 665 mmHg 94%
    06:00 +19°C° 0 mm 1 mps 666 mmHg 92%
    07:00 +20°C° 0 mm 1 mps 667 mmHg 89%
    08:00 +22°C° 0 mm 1 mps 667 mmHg 77%
    09:00 +25°C° 0 mm 1 mps 668 mmHg 65%
    10:00 +27°C° 0 mm 2 mps 668 mmHg 53%
    11:00 +29°C° 0 mm 1 mps 668 mmHg 46%
    12:00 +31°C° 0 mm 1 mps 668 mmHg 38%
    13:00 +33°C° 0 mm 1 mps 668 mmHg 31%
    14:00 +32°C° 0 mm 1 mps 667 mmHg 33%
    15:00 +31°C° 0 mm 1 mps 666 mmHg 34%
    16:00 +28°C° 0 mm 0 mps 666 mmHg 36%
    17:00 +27°C° 0 mm 0 mps 666 mmHg 40%
    18:00 +25°C° 0 mm 0 mps 666 mmHg 44%
    19:00 +23°C° 0 mm 0 mps 666 mmHg 47%
    20:00 +24°C° 0 mm 1 mps 666 mmHg 51%
    21:00 +23°C° 0 mm 1 mps 666 mmHg 55%
    22:00 +23°C° 0 mm 1 mps 667 mmHg 58%
    23:00 +22°C° 0 mm 1 mps 666 mmHg 65%

    Day after tomorrow, 5 June, Friday

    Time Temperature Precipitation Wind Pressure Humidity
    00:00 +21°C° 0 mm 1 mps 666 mmHg 72%
    01:00 +20°C° 0 mm 1 mps 666 mmHg 79%
    02:00 +19°C° 0 mm 1 mps 666 mmHg 83%
    03:00 +19°C° 0 mm 1 mps 666 mmHg 86%
    04:00 +18°C° 0 mm 1 mps 665 mmHg 89%
    05:00 +19°C° 0 mm 1 mps 666 mmHg 88%
    06:00 +19°C° 0 mm 1 mps 666 mmHg 87%
    07:00 +19°C° 0 mm 1 mps 667 mmHg 86%
    08:00 +22°C° 0 mm 1 mps 668 mmHg 71%
    09:00 +26°C° 0 mm 1 mps 668 mmHg 57%
    10:00 +29°C° 0 mm 2 mps 669 mmHg 43%
    11:00 +31°C° 0 mm 2 mps 669 mmHg 38%
    12:00 +32°C° 0 mm 2 mps 668 mmHg 33%
    13:00 +34°C° 0 mm 2 mps 668 mmHg 28%
    14:00 +34°C° 0 mm 2 mps 667 mmHg 28%
    15:00 +32°C° 0 mm 2 mps 667 mmHg 28%
    16:00 +32°C° 0 mm 1 mps 666 mmHg 29%
    17:00 +30°C° 0 mm 1 mps 666 mmHg 33%
    18:00 +27°C° 0 mm 1 mps 666 mmHg 37%
    19:00 +25°C° 0 mm 1 mps 666 mmHg 41%
    20:00 +24°C° 0 mm 1 mps 666 mmHg 44%
    21:00 +23°C° 0 mm 1 mps 666 mmHg 47%
    22:00 +20°C° 0 mm 0 mps 667 mmHg 49%
    23:00 +21°C° 0 mm 1 mps 666 mmHg 57%

    6 June, Saturday

    Time Temperature Precipitation Wind Pressure Humidity
    00:00 +21°C° 0 mm 1 mps 666 mmHg 65%
    01:00 +20°C° 0 mm 1 mps 666 mmHg 73%
    02:00 +19°C° 0 mm 1 mps 665 mmHg 75%
    03:00 +19°C° 0 mm 1 mps 665 mmHg 77%
    04:00 +18°C° 0 mm 1 mps 665 mmHg 79%
    05:00 +19°C° 0 mm 1 mps 666 mmHg 74%
    06:00 +19°C° 0 mm 1 mps 666 mmHg 69%
    07:00 +19°C° 0 mm 1 mps 667 mmHg 64%
    08:00 +21°C° 0 mm 2 mps 668 mmHg 55%
    09:00 +25°C° 0 mm 2 mps 668 mmHg 45%
    10:00 +28°C° 0 mm 3 mps 669 mmHg 35%
    11:00 +30°C° 0 mm 2 mps 669 mmHg 32%
    12:00 +32°C° 0 mm 2 mps 668 mmHg 28%
    13:00 +34°C° 0 mm 2 mps 668 mmHg 25%
    14:00 +34°C° 0 mm 2 mps 667 mmHg 25%
    15:00 +34°C° 0 mm 2 mps 667 mmHg 25%
    16:00 +32°C° 0 mm 2 mps 666 mmHg 25%
    17:00 +29°C° 0 mm 1 mps 666 mmHg 30%
    18:00 +27°C° 0 mm 1 mps 666 mmHg 35%
    19:00 +22°C° 0 mm 0 mps 666 mmHg 40%
    20:00 +21°C° 0 mm 0 mps 666 mmHg 43%
    21:00 +20°C° 0 mm 0 mps 666 mmHg 45%
    22:00 +20°C° 0 mm 0 mps 666 mmHg 48%
    23:00 +19°C° 0 mm 0 mps 666 mmHg 54%

    7 June, Sunday

    Time Temperature Precipitation Wind Pressure Humidity
    00:00 +20°C° 0 mm 1 mps 666 mmHg 61%
    01:00 +19°C° 0 mm 1 mps 665 mmHg 68%
    02:00 +19°C° 0 mm 1 mps 665 mmHg 70%
    03:00 +18°C° 0 mm 1 mps 665 mmHg 72%
    04:00 +18°C° 0 mm 1 mps 665 mmHg 75%
    05:00 +18°C° 0 mm 1 mps 665 mmHg 67%
    06:00 +17°C° 0 mm 2 mps 666 mmHg 60%
    07:00 +17°C° 0 mm 2 mps 666 mmHg 53%
    08:00 +20°C° 0 mm 3 mps 667 mmHg 45%
    09:00 +24°C° 0 mm 3 mps 668 mmHg 37%
    10:00 +28°C° 0 mm 4 mps 668 mmHg 29%
    11:00 +29°C° 0 mm 3 mps 668 mmHg 26%
    12:00 +31°C° 0 mm 3 mps 668 mmHg 24%
    13:00 +32°C° 0 mm 2 mps 667 mmHg 21%
    14:00 +32°C° 0 mm 2 mps 667 mmHg 21%
    15:00 +32°C° 0 mm 2 mps 667 mmHg 22%
    16:00 +31°C° 0 mm 2 mps 666 mmHg 22%
    17:00 +28°C° 0 mm 1 mps 666 mmHg 28%
    18:00 +25°C° 0 mm 1 mps 666 mmHg 33%
    19:00 +20°C° 0 mm 0 mps 665 mmHg 38%
    20:00 +20°C° 0 mm 0 mps 665 mmHg 40%
    21:00 +19°C° 0 mm 0 mps 666 mmHg 41%
    22:00 +18°C° 0 mm 0 mps 666 mmHg 42%
    23:00 +18°C° 0 mm 0 mps 666 mmHg 43%

    8 June, Monday

    Time Temperature Precipitation Wind Pressure Humidity
    00:00 +19°C° 0 mm 1 mps 665 mmHg 44%
    01:00 +19°C° 0 mm 1 mps 665 mmHg 45%
    02:00 +18°C° 0 mm 1 mps 665 mmHg 47%
    03:00 +16°C° 0 mm 1 mps 665 mmHg 48%
    04:00 +15°C° 0 mm 1 mps 664 mmHg 49%
    05:00 +15°C° 0 mm 1 mps 665 mmHg 49%
    06:00 +15°C° 0 mm 2 mps 665 mmHg 50%
    07:00 +15°C° 0 mm 2 mps 666 mmHg 50%
    08:00 +19°C° 0 mm 2 mps 666 mmHg 44%
    09:00 +22°C° 0 mm 3 mps 667 mmHg 37%
    10:00 +26°C° 0 mm 3 mps 668 mmHg 31%
    11:00 +28°C° 0 mm 3 mps 668 mmHg 28%
    12:00 +30°C° 0 mm 2 mps 667 mmHg 24%
    13:00 +32°C° 0 mm 2 mps 667 mmHg 20%
    14:00 +32°C° 0 mm 2 mps 666 mmHg 21%
    15:00 +31°C° 0 mm 2 mps 666 mmHg 21%
    16:00 +31°C° 0 mm 2 mps 666 mmHg 21%
    17:00 +28°C° 0 mm 2 mps 665 mmHg 26%
    18:00 +25°C° 0 mm 1 mps 665 mmHg 31%
    19:00 +22°C° 0 mm 1 mps 665 mmHg 36%
    20:00 +21°C° 0 mm 1 mps 665 mmHg 37%
    21:00 +21°C° 0 mm 1 mps 665 mmHg 38%
    22:00 +20°C° 0 mm 1 mps 666 mmHg 38%
    23:00 +19°C° 0 mm 1 mps 665 mmHg 41%
    Show more